Temperature
21 22 22 23 23 21 21 20 20 20 19 20 19 19 19 20 20 20 20 20 20 20 20 19 19 19 19 18 18 17 17 17 17 16 16 15 15 15 15 15 15 15 14 14
22 22 22 23 23 22 22 21 20 20 20 19 19 19 19 19 20 20 20 20 20 20 19 19 19 19 19 18 18 17 17 17 17 16 16 15 15 15 15 15 14 14 14 14
20 21 22 22 22 22 22 21 20 20 20 19 19 18 19 20 20 20 20 20 20 20 20 19 19 19 19 18 18 17 17 17 16 16 16 15 15 15 15 14 14 14 14 14
18 21 22 21 21 21 21 21 20 20 19 19 19 20 20 21 21 21 21 20 20 20 20 19 19 19 18 18 18 17 17 16 16 16 15 15 15 15 14 14 14 14 13 13
17 19 20 21 22 21 21 21 20 19 19 19 19 19 20 21 21 21 21 21 20 20 20 19 19 18 18 18 17 17 17 16 16 15 15 15 15 14 14 14 14 13 13 13
17 20 20 21 21 21 21 21 20 19 19 19 19 18 19 21 21 21 21 21 20 20 19 19 18 18 18 17 17 17 16 16 16 15 15 15 14 14 14 13 13 13 13 13
17 19 19 20 20 21 21 21 20 20 20 19 19 19 21 21 21 21 21 20 20 19 19 18 18 18 17 17 17 16 16 16 15 15 15 14 14 14 13 13 13 13 13 13
16 18 19 20 20 20 19 20 20 20 20 20 20 21 21 21 21 21 20 20 20 19 18 18 18 17 17 17 17 16 15 15 15 15 14 14 14 13 13 13 13 13 13 12
16 17 18 18 19 20 21 20 21 21 21 21 20 20 20 20 20 20 20 20 19 19 18 18 17 17 17 17 16 15 15 15 15 14 14 14 13 13 13 13 13 12 12 12
15 16 17 18 20 20 21 21 21 21 21 21 20 20 20 20 20 20 19 19 19 18 18 17 17 17 16 16 15 15 15 15 14 14 14 13 13 13 13 13 13 12 12 12
15 16 17 18 19 20 20 21 21 21 20 20 20 20 20 20 20 19 19 19 18 18 18 17 17 16 16 15 15 15 14 14 14 14 14 13 13 13 13 13 13 12 12 12
15 16 15 18 19 19 19 20 20 20 20 20 20 20 19 19 19 19 18 18 17 17 17 17 16 16 16 15 15 15 14 14 14 14 13 13 13 13 13 12 12 12 12 12
18 18 18 18 19 19 19 19 20 20 20 19 19 19 19 19 19 18 18 17 17 17 16 16 16 15 15 15 15 14 14 14 14 13 13 13 13 13 12 12 12 12 12 11
18 18 18 18 18 19 19 19 19 19 19 19 19 19 18 18 18 18 17 17 17 16 16 16 15 15 15 15 14 14 14 14 13 13 13 13 13 12 12 12 12 12 11 11
18 18 18 18 18 18 18 18 18 18 18 18 18 18 18 18 17 17 17 16 16 16 16 15 15 15 14 14 14 14 14 13 13 13 13 13 12 12 12 12 11 11 11 11
18 18 18 18 18 18 18 18 18 18 18 17 17 17 17 17 17 16 16 16 16 16 15 15 15 14 14 14 14 13 13 13 13 13 12 12 12 12 12 11 11 11 11 11
17 16 16 17 17 17 17 17 17 17 17 17 17 17 16 16 16 16 16 15 15 15 15 15 14 14 14 14 13 13 13 13 13 12 12 12 12 12 11 11 11 11 11 10
17 17 17 17 17 16 17 17 17 17 16 16 16 16 16 16 16 15 15 15 15 15 15 14 14 14 14 13 13 13 13 13 12 12 12 12 11 11 11 11 11 10 10 10
16 16 16 16 16 16 16 16 16 16 16 16 16 16 16 15 15 15 15 15 14 14 14 14 14 14 13 13 13 13 12 12 12 12 11 11 11 11 11 11 10 10 10 10
16 16 16 16 16 16 16 15 15 15 15 15 15 15 15 15 15 15 14 14 14 14 14 14 14 13 13 13 13 12 12 12 12 12 11 11 11 11 11 10 10 10 10 10
15 15 15 15 15 15 15 15 15 15 15 15 15 15 15 15 14 14 14 14 14 14 13 13 13 13 13 13 12 12 12 11 11 11 11 11 11 11 10 10 10 10 10 10
15 14 14 15 15 15 15 15 15 15 15 14 14 14 14 14 14 14 13 13 13 13 13 13 13 13 13 12 12 12 12 11 11 11 11 11 10 10 10 10 10 10 9 9
14 14 14 14 14 14 14 14 14 14 14 14 14 14 14 14 13 13 13 13 13 13 13 13 13 13 12 12 12 11 11 11 11 11 11 10 10 10 10 10 10 9 9 9
13 13 13 14 14 14 14 14 14 14 14 14 14 13 13 13 13 13 13 13 13 13 13 13 12 12 12 12 11 11 11 11 11 10 10 10 10 10 10 9 9 9 9 9
13 13 13 13 13 13 13 13 13 13 13 13 13 13 13 13 13 13 13 12 12 12 12 12 12 12 12 11 11 11 11 10 10 10 10 10 10 10 10 9 9 9 9 9
12 12 12 12 13 12 13 12 12 12 12 12 12 12 12 12 12 12 12 12 12 12 12 12 12 11 11 11 11 11 10 10 10 10 10 10 9 9 9 9 9 9 9 8
12 12 12 12 12 12 12 12 12 12 12 12 12 12 12 12 12 12 12 11 11 11 11 11 11 11 11 11 10 10 10 10 9 9 9 9 9 9 9 9 9 9 8 8
Wind_Speed
4 3 3 3 3 5 5 7 7 7 7 8 6 6 5 4 3 3 3 3 4 4 3 3 3 3 3 3 3 3 3 3 2 2 1 1 2 2 1 1 1 1 1 1
0 0 2 2 2 4 4 4 4 2 5 5 2 3 3 3 4 4 4 4 4 4 4 4 4 3 3 3 2 3 3 3 2 1 1 1 2 1 1 1 1 1 1 1
2 3 2 3 4 4 3 3 6 6 6 2 2 5 6 6 6 6 6 5 5 5 5 4 4 4 4 4 3 3 2 2 1 1 1 2 1 1 1 1 1 1 1 1
3 3 3 7 3 4 4 2 3 3 3 4 4 3 2 4 6 6 5 5 5 5 4 3 3 4 4 3 3 3 3 2 1 1 1 1 0 0 1 0 0 0 1 1
4 3 4 5 2 4 4 2 2 4 3 2 3 3 2 2 4 6 5 5 4 5 4 4 3 3 4 3 3 3 3 2 2 2 1 1 1 1 1 0 0 1 1 1
5 4 6 7 3 2 4 3 3 4 5 4 5 3 4 3 3 3 3 3 4 4 3 4 3 4 4 3 3 3 3 3 3 2 2 2 2 1 1 1 1 1 1 1
4 4 6 6 3 3 4 7 3 4 6 7 6 6 4 2 2 3 3 3 4 5 4 3 3 4 4 3 4 4 3 2 2 2 2 2 2 1 1 1 1 1 1 1
4 3 6 3 3 5 7 3 3 4 5 5 4 2 2 3 3 3 3 4 5 5 3 2 3 4 4 3 3 2 2 2 2 2 1 1 1 1 1 1 1 1 1 2
6 6 4 3 3 3 3 3 3 4 4 5 4 3 2 2 3 3 4 4 4 5 4 2 2 4 4 4 2 3 2 2 2 1 1 1 1 1 1 1 1 2 1 2
1 4 4 4 3 2 1 2 2 3 3 4 4 3 2 3 3 3 3 4 4 5 4 3 2 3 3 3 3 3 2 2 1 1 1 1 1 1 2 2 2 2 2 2
1 4 4 4 2 2 2 2 2 2 2 3 4 3 3 4 4 4 3 3 4 4 5 4 3 2 2 2 3 3 2 2 2 1 1 1 1 2 3 3 4 4 4 4
5 6 4 4 3 1 1 1 1 2 2 1 3 4 3 3 4 4 4 3 3 3 4 3 3 3 2 3 4 4 3 2 2 2 1 1 1 2 2 3 4 5 5 5
4 3 4 4 2 1 1 1 1 2 2 1 1 3 3 3 3 4 3 4 4 4 4 3 3 3 3 2 3 4 3 3 2 2 2 2 2 2 2 3 2 3 4 4
3 2 1 1 2 1 1 0 1 1 1 1 1 2 3 3 3 3 4 4 4 3 3 4 3 3 2 2 3 3 3 3 3 3 3 3 3 3 2 2 2 2 2 3
2 2 3 2 0 1 1 2 2 1 1 1 1 2 2 3 4 4 3 3 3 3 2 2 2 3 2 3 3 3 3 2 2 2 2 2 2 2 2 2 2 2 2 2
1 1 2 2 1 0 0 1 2 1 1 1 1 2 2 3 3 3 3 4 4 4 4 3 3 3 2 3 3 2 2 3 2 2 1 1 2 2 2 2 2 3 3 3
3 2 2 2 2 1 2 3 3 3 2 2 3 2 2 2 2 2 2 3 4 4 4 4 4 3 3 3 3 2 2 2 2 1 2 2 2 2 2 2 3 3 4 3
5 5 5 5 4 3 2 1 2 2 2 2 1 2 3 3 4 4 3 2 1 1 3 3 3 3 3 3 3 2 2 2 2 2 2 2 2 2 2 2 3 4 3 3
2 3 2 2 3 3 2 2 2 2 2 2 3 3 3 3 3 3 3 2 3 3 4 3 3 3 3 4 4 3 3 2 2 2 2 2 2 1 2 2 3 3 3 3
1 1 1 1 1 1 1 2 1 1 1 2 3 2 1 2 2 2 2 3 4 4 3 3 3 3 3 3 4 3 3 3 3 2 2 2 2 2 2 2 3 3 3 3
1 1 1 0 1 1 2 2 2 2 2 2 3 4 3 3 2 2 3 3 4 3 2 3 2 2 3 3 3 3 3 3 3 3 3 3 3 3 3 2 3 3 3 3
0 0 1 1 1 2 2 1 2 2 2 1 2 3 3 3 3 3 3 3 3 3 2 2 3 3 4 3 3 3 3 3 3 3 3 3 3 3 3 3 3 3 4 4
1 1 2 2 2 2 2 2 2 2 2 3 3 3 3 4 3 3 3 3 2 3 3 3 4 4 4 3 2 3 3 3 3 3 3 3 3 3 3 4 4 4 4 4
1 1 2 2 1 1 2 3 2 1 1 2 2 2 2 2 2 2 3 3 3 3 2 3 3 3 3 3 3 3 3 3 3 3 3 3 3 3 3 4 4 4 4 5
1 1 1 1 1 2 3 2 1 1 1 1 2 1 1 2 2 2 1 1 2 1 1 2 3 3 3 2 3 3 3 3 3 3 3 3 3 3 3 4 4 4 3 4
1 1 2 2 3 3 2 1 1 1 1 1 2 2 1 0 0 0 0 1 0 0 0 0 1 1 1 2 2 2 2 2 2 2 3 3 3 3 3 4 4 3 3 4
1 1 1 1 1 1 1 1 2 2 2 2 2 2 1 1 0 0 0 0 0 0 0 0 1 1 1 1 1 1 2 2 2 2 2 2 3 3 3 3 3 3 3 3
Wind_Direction
206 216 183 208 200 170 175 181 183 221 219 244 236 213 204 183 165 153 176 181 181 179 181 174 163 159 156 159 156 149 146 165 209 228 243 280 291 294 301 330 347 353 45 27
45 11 192 233 245 184 185 173 193 203 244 249 229 158 165 179 172 188 209 206 196 187 182 183 183 174 162 165 164 151 167 194 211 220 231 250 260 273 322 350 345 28 46 38
224 297 61 265 242 194 192 191 170 199 230 202 168 196 197 194 190 203 217 212 202 196 192 193 192 179 177 178 163 155 177 205 208 203 225 252 258 286 306 323 23 40 22 38
132 92 215 248 267 183 168 204 211 219 214 190 199 205 198 180 186 205 209 207 202 193 190 191 182 175 173 165 161 166 179 200 206 202 220 238 226 262 286 326 38 7 6 349
125 163 261 289 257 170 163 248 224 198 195 148 115 73 354 208 187 200 200 197 191 183 179 168 165 167 154 157 160 168 190 199 204 192 192 187 204 251 254 184 251 257 226 250
124 149 217 239 265 182 120 272 249 180 172 158 122 128 249 222 177 183 171 161 162 152 137 141 159 155 150 168 174 201 214 214 203 180 179 198 218 238 235 204 233 263 285 261
145 188 250 254 272 118 160 240 226 178 171 164 178 198 213 183 165 161 148 144 141 136 143 162 158 148 157 179 209 220 207 193 187 184 191 198 205 225 220 220 247 281 290 296
145 172 248 276 129 175 214 219 170 173 175 172 185 187 173 168 160 139 125 125 134 135 142 152 156 157 172 206 221 189 171 178 191 201 218 208 200 258 261 202 189 256 285 306
184 208 250 279 235 253 185 180 183 170 180 168 162 171 170 161 146 141 139 137 139 140 139 147 164 167 189 221 192 163 163 184 197 202 216 200 207 232 269 225 212 239 241 261
254 279 296 313 312 331 198 185 177 156 156 154 164 165 158 161 159 156 150 152 149 139 149 179 200 201 205 196 171 161 179 202 197 192 257 282 237 219 217 227 229 234 234 246
275 285 325 335 340 349 13 63 92 92 116 149 155 163 175 181 178 168 161 164 160 168 180 198 207 212 198 171 157 169 192 212 227 221 223 237 254 240 228 231 221 218 227 222
219 224 204 248 269 333 73 81 112 108 90 113 162 173 172 182 179 168 168 163 167 179 183 192 198 212 208 181 171 172 197 218 226 229 228 226 242 305 290 247 246 229 226 220
220 218 210 237 252 236 145 151 159 155 164 164 171 169 168 177 173 166 167 171 181 187 187 188 200 227 232 203 179 184 205 215 213 212 219 238 240 248 287 315 312 270 255 241
203 145 184 227 223 207 148 153 114 106 116 149 163 154 155 154 152 170 190 196 183 172 178 184 193 224 230 198 186 196 204 212 211 213 216 228 236 238 239 250 282 299 293 261
233 206 204 221 157 75 107 122 111 92 52 33 84 145 158 160 174 192 194 171 152 160 183 190 205 238 229 194 190 195 197 206 208 211 217 226 235 240 247 248 255 266 287 298
233 104 124 122 126 93 101 162 171 228 233 213 220 217 195 181 179 176 168 162 163 186 204 207 226 240 221 192 184 189 202 210 195 197 212 228 237 242 247 244 251 260 266 272
155 175 182 190 203 224 224 210 194 201 212 228 232 230 170 140 138 178 201 196 190 199 203 208 227 231 201 184 178 195 209 216 204 202 218 225 229 234 240 242 250 259 265 260
198 197 191 187 188 196 231 225 199 197 212 227 203 163 161 176 195 207 215 208 190 238 238 226 222 202 190 177 176 197 203 204 204 215 226 230 231 232 235 247 256 262 272 274
167 167 167 166 172 179 206 234 234 228 221 191 180 198 208 215 212 208 193 183 199 239 257 241 212 193 193 195 182 181 196 210 214 222 225 227 233 244 247 255 263 267 270 269
126 127 129 129 111 172 227 250 250 240 236 203 183 170 204 245 224 197 192 212 228 234 234 221 199 200 207 206 187 179 192 215 225 226 222 225 234 247 258 267 270 271 269 265
96 88 93 81 320 299 251 230 216 221 230 200 192 196 208 231 227 202 196 240 264 242 213 197 193 206 204 194 179 176 187 212 221 217 219 229 239 250 257 261 263 265 265 267
116 279 272 248 246 294 292 263 225 213 207 208 208 197 201 219 220 216 219 227 243 219 197 200 204 201 193 186 183 185 194 207 214 215 218 224 228 239 246 249 252 259 261 263
224 251 262 246 229 252 284 281 247 216 211 220 217 212 217 221 208 201 243 248 222 210 208 219 216 195 177 169 179 192 201 208 216 219 222 228 229 229 236 248 252 255 260 266
258 262 267 268 232 269 288 285 277 263 243 241 224 212 212 222 243 242 233 234 224 219 220 218 211 194 167 170 179 188 198 207 216 221 226 233 239 240 241 246 253 258 259 262
262 244 250 247 251 259 258 263 285 317 314 298 285 261 226 208 219 242 235 227 223 210 225 209 191 182 177 184 193 199 205 213 220 225 234 241 246 250 249 245 242 250 257 259
274 257 253 247 241 238 221 192 213 254 258 299 313 310 311 335 169 263 267 249 228 159 152 181 186 187 195 199 200 207 216 225 228 231 238 249 258 259 256 253 252 251 255 257
287 272 282 319 314 235 189 185 212 242 235 225 250 280 283 303 18 344 278 62 94 109 102 195 190 181 188 204 213 223 228 232 238 242 246 249 255 258 259 260 261 258 256 255
Height
1495 1493 1493 1493 1494 1498 1502 1506 1512 1508 1506 1498 1494 1493 1494 1495 1496 1498 1499 1500 1501 1503 1504 1506 1507 1508 1509 1510 1511 1511 1511 1512 1512 1512 1512 1512 1511 1511 1510 1509 1508 1508 1507 1506
1495 1492 1493 1494 1492 1493 1495 1498 1500 1500 1500 1491 1491 1492 1493 1494 1495 1496 1498 1499 1500 1502 1503 1505 1506 1507 1508 1508 1509 1510 1510 1510 1510 1510 1510 1510 1510 1509 1508 1508 1507 1507 1505 1504
1505 1498 1494 1502 1493 1492 1493 1492 1494 1499 1494 1489 1490 1491 1491 1492 1494 1495 1496 1497 1499 1500 1502 1503 1505 1506 1507 1508 1509 1509 1510 1510 1510 1509 1509 1509 1509 1508 1507 1507 1506 1505 1504 1503
1509 1504 1512 1499 1485 1485 1488 1489 1488 1488 1487 1487 1488 1489 1490 1491 1493 1494 1495 1496 1498 1499 1501 1502 1504 1505 1506 1507 1507 1508 1508 1508 1508 1508 1508 1507 1507 1507 1506 1505 1505 1504 1503 1502
1513 1513 1506 1493 1485 1485 1489 1490 1486 1486 1486 1487 1488 1490 1491 1491 1492 1493 1495 1496 1497 1498 1500 1501 1503 1504 1505 1505 1505 1506 1506 1506 1506 1506 1506 1505 1505 1505 1504 1504 1503 1502 1500 1500
1510 1510 1512 1494 1482 1481 1486 1493 1484 1483 1484 1487 1488 1494 1492 1490 1492 1493 1494 1495 1496 1497 1499 1500 1501 1502 1503 1503 1504 1504 1504 1505 1505 1505 1504 1504 1503 1503 1502 1502 1501 1500 1499 1498
1507 1507 1501 1485 1480 1482 1496 1492 1481 1481 1482 1484 1486 1488 1488 1489 1490 1491 1492 1494 1495 1496 1497 1499 1500 1501 1501 1502 1502 1503 1503 1503 1503 1503 1503 1502 1502 1501 1500 1499 1499 1498 1497 1497
1507 1506 1501 1481 1480 1485 1484 1478 1478 1480 1481 1483 1484 1485 1486 1487 1488 1490 1491 1492 1493 1495 1496 1498 1499 1499 1500 1500 1501 1501 1501 1501 1501 1501 1501 1500 1500 1499 1498 1497 1497 1496 1496 1495
1494 1494 1483 1480 1479 1478 1478 1478 1478 1479 1481 1482 1483 1484 1485 1486 1487 1489 1490 1491 1492 1493 1495 1496 1497 1498 1498 1499 1499 1499 1499 1499 1499 1499 1498 1498 1498 1497 1496 1495 1495 1494 1494 1493
1488 1483 1480 1479 1478 1477 1478 1478 1478 1479 1480 1482 1482 1483 1485 1486 1487 1488 1489 1490 1491 1492 1493 1494 1495 1496 1496 1497 1497 1497 1497 1497 1497 1497 1496 1496 1496 1495 1494 1493 1492 1492 1491 1490
1487 1482 1480 1478 1477 1478 1478 1478 1479 1480 1480 1482 1482 1483 1484 1484 1485 1486 1487 1488 1489 1490 1491 1492 1493 1494 1494 1495 1495 1495 1495 1495 1495 1495 1494 1494 1494 1493 1492 1491 1490 1490 1489 1488
1485 1480 1480 1478 1477 1478 1478 1479 1480 1480 1481 1482 1482 1483 1483 1483 1484 1485 1486 1487 1488 1489 1490 1491 1491 1492 1492 1492 1493 1493 1493 1493 1493 1493 1493 1492 1491 1491 1490 1489 1488 1488 1487 1486
1477 1477 1478 1477 1478 1478 1478 1479 1480 1481 1481 1481 1482 1482 1482 1483 1483 1484 1485 1486 1487 1487 1488 1489 1490 1490 1490 1491 1491 1491 1491 1491 1491 1491 1490 1490 1489 1488 1487 1487 1486 1485 1485 1484
1476 1477 1477 1476 1477 1477 1478 1479 1479 1480 1481 1481 1482 1482 1482 1482 1482 1483 1484 1485 1485 1486 1487 1487 1488 1488 1488 1488 1488 1488 1488 1488 1488 1488 1488 1488 1487 1486 1485 1484 1483 1482 1482 1482
1475 1475 1475 1476 1476 1477 1477 1478 1478 1479 1479 1480 1480 1480 1481 1481 1481 1482 1483 1484 1484 1484 1485 1485 1485 1486 1486 1486 1486 1486 1486 1486 1486 1486 1485 1485 1484 1483 1483 1482 1481 1480 1479 1479
1473 1473 1474 1474 1475 1475 1476 1477 1477 1478 1478 1479 1479 1479 1479 1480 1480 1480 1481 1482 1482 1482 1483 1483 1484 1484 1484 1484 1484 1484 1484 1484 1483 1483 1483 1482 1481 1480 1480 1479 1478 1477 1477 1476
1471 1471 1472 1473 1473 1474 1475 1476 1476 1476 1477 1477 1478 1478 1478 1478 1478 1479 1479 1480 1480 1481 1481 1481 1482 1482 1482 1482 1482 1482 1482 1482 1481 1481 1480 1479 1478 1478 1477 1476 1475 1475 1474 1474
1469 1470 1471 1471 1472 1473 1473 1474 1474 1475 1475 1475 1475 1476 1476 1476 1476 1476 1477 1478 1478 1478 1478 1478 1479 1479 1479 1479 1480 1480 1480 1479 1478 1478 1478 1477 1476 1475 1475 1474 1473 1473 1472 1471
1468 1469 1469 1470 1471 1471 1471 1472 1472 1472 1473 1473 1473 1473 1473 1474 1474 1474 1474 1474 1474 1475 1476 1476 1476 1477 1477 1477 1477 1477 1477 1476 1476 1476 1476 1475 1475 1474 1473 1472 1471 1471 1470 1469
1466 1467 1468 1468 1469 1469 1470 1470 1470 1470 1470 1470 1470 1470 1470 1471 1472 1472 1472 1472 1472 1473 1473 1473 1474 1474 1474 1474 1474 1474 1474 1474 1473 1473 1473 1473 1472 1472 1471 1470 1469 1468 1468 1466
1464 1465 1465 1466 1467 1467 1467 1468 1468 1467 1467 1467 1468 1467 1468 1468 1469 1469 1469 1469 1470 1471 1471 1471 1471 1471 1471 1471 1471 1471 1471 1470 1470 1470 1470 1470 1470 1469 1468 1468 1467 1466 1465 1464
1463 1463 1464 1464 1464 1465 1465 1465 1465 1465 1465 1465 1465 1466 1466 1466 1466 1466 1467 1467 1468 1468 1468 1468 1469 1469 1468 1468 1468 1468 1468 1468 1468 1468 1468 1467 1467 1466 1465 1465 1464 1464 1463 1461
1461 1461 1462 1462 1462 1462 1462 1462 1462 1462 1462 1463 1463 1463 1463 1463 1464 1464 1464 1465 1465 1466 1466 1466 1466 1466 1466 1466 1466 1466 1466 1466 1465 1465 1465 1464 1463 1462 1462 1461 1461 1461 1460 1459
1460 1460 1460 1460 1460 1460 1459 1459 1459 1460 1460 1460 1460 1460 1460 1460 1461 1462 1462 1463 1463 1463 1463 1463 1464 1464 1463 1463 1463 1463 1463 1463 1463 1462 1462 1461 1460 1460 1459 1458 1458 1457 1456 1455
1458 1458 1458 1458 1458 1457 1457 1457 1457 1457 1457 1457 1457 1458 1458 1458 1459 1459 1460 1460 1461 1461 1460 1460 1461 1461 1461 1461 1460 1460 1460 1460 1460 1459 1459 1458 1457 1456 1456 1455 1454 1453 1452 1451
1456 1455 1455 1455 1455 1455 1455 1455 1455 1455 1455 1454 1454 1455 1456 1456 1457 1457 1457 1458 1458 1458 1458 1458 1458 1458 1458 1458 1457 1457 1457 1457 1456 1455 1455 1454 1453 1453 1452 1451 1451 1450 1449 1448
1454 1454 1453 1453 1453 1453 1453 1453 1453 1453 1452 1452 1452 1453 1453 1454 1454 1455 1455 1456 1456 1456 1456 1456 1456 1456 1456 1455 1455 1455 1454 1454 1453 1452 1452 1451 1450 1450 1449 1448 1447 1447 1445 1444